Hattiesburg, MS

8:07 AM CDT on March 23, 2017 (GMT -0500)
Chain Municipal

Weather History for KHBG - January, 2013

Change the Weather History Date:

Thursday, January 10, 2013

  Actual Average Record
Temperature  
Mean Temperature 67 °F 49 °F  
Max Temperature 73 °F 60 °F 84 °F (1949)
Min Temperature 61 °F 37 °F 11 °F (1962)
Degree Days  
Heating Degree Days 0 17  
Month to date heating degree days 145 163  
Since 1 July heating degree days 847 948  
Cooling Degree Days 2 0  
Month to date cooling degree days 2 0  
Year to date cooling degree days 2 0  
Growing Degree Days 17 (Base 50)    
Moisture  
Dew Point 64 °F    
Average Humidity 88    
Maximum Humidity 97    
Minimum Humidity 79    
Precipitation  
Precipitation 1.02 in 0.17 in 1.61 in (2009)
Month to date precipitation 2.20 1.82  
Year to date precipitation 2.20 1.82  
Sea Level Pressure  
Sea Level Pressure 30.14 in    
Wind  
Wind Speed 8 mph (SE)    
Max Wind Speed 20 mph    
Max Gust Speed 26 mph    
Visibility 7 miles    
Events Rain , Thunderstorm    
T = Trace of Precipitation, MM = Missing Value Source: NWS Daily Summary

Daily Weather History Graph

Daily Weather History Graph

Search for Another Location

Airport or City:

Trip Planner

Search our weather history database for the weather conditions in past years. The results will help you decide how hot, cold, wet, or windy it might be!

Date:

Astronomy

Jan. 10, 2013 Rise Set
Actual Time 6:56 AM CST 5:12 PM CST
Civil Twilight 6:30 AM CST 5:39 PM CST
Nautical Twilight 6:00 AM CST 6:09 PM CST
Astronomical Twilight 5:31 AM CST 6:38 PM CST
Moon 5:36 AM CST (1/10) 4:19 PM CST (1/10)
Length of Visible Light 11h 08m
Length of Day
10h 16m
Waning Crescent, 2% of the Moon is Illuminated
Jan 10
Waning Crescent
Jan 11
New
Jan 18
First Quarter
Jan 26
Full
Feb 3
Last Quarter

Hourly Weather History & Observations

Time (CST) Temp. Dew Point Humidity Pressure Visibility Wind Dir Wind Speed Gust Speed Precip Events Conditions
12:46 AM 66.2 °F 64.4 °F 94% 30.22 in 2.5 mi East 5.8 mph - 0.01 in Rain Light Rain
12:53 AM 66.9 °F 64.9 °F 93% 30.22 in 2.5 mi East 5.8 mph - 0.01 in Rain Light Rain
1:16 AM 66.2 °F 64.4 °F 94% 30.22 in 3.0 mi ESE 5.8 mph - 0.02 in Rain Light Rain
1:53 AM 66.9 °F 64.9 °F 93% 30.21 in 2.5 mi ESE 5.8 mph - 0.11 in Rain Heavy Rain
2:10 AM 66.2 °F 66.2 °F 100% 30.21 in 3.0 mi ESE 6.9 mph - 0.07 in Rain Rain
2:53 AM 68.0 °F 66.0 °F 93% 30.19 in 7.0 mi ESE 8.1 mph - 0.08 in   Overcast
3:31 AM 68.0 °F 66.2 °F 94% 30.17 in 10.0 mi ESE 9.2 mph - N/A   Overcast
3:53 AM 68.0 °F 66.0 °F 93% 30.16 in 10.0 mi ESE 8.1 mph - N/A   Overcast
4:53 AM 68.0 °F 66.0 °F 93% 30.15 in 6.0 mi ESE 8.1 mph - 0.00 in Rain Light Rain
5:53 AM 68.0 °F 66.0 °F 93% 30.15 in 8.0 mi ESE 5.8 mph - N/A   Overcast
6:02 AM 68.0 °F 66.2 °F 94% 30.16 in 10.0 mi ESE 6.9 mph - 0.00 in Rain Light Rain
6:53 AM 69.1 °F 66.0 °F 90% 30.17 in 10.0 mi ESE 4.6 mph - 0.00 in   Overcast
7:00 AM 69.8 °F 66.2 °F 88% 30.18 in 10.0 mi ESE 4.6 mph - N/A   Overcast
7:53 AM 70.0 °F 66.0 °F 87% 30.17 in 10.0 mi ESE 9.2 mph - N/A   Overcast
9:53 AM 72.0 °F 66.0 °F 81% 30.19 in 10.0 mi ESE 10.4 mph - N/A   Overcast
10:30 AM 71.6 °F 66.2 °F 83% 30.19 in 10.0 mi ESE 11.5 mph - N/A   Mostly Cloudy
10:41 AM 71.6 °F 66.2 °F 83% 30.19 in 10.0 mi SE 12.7 mph - N/A   Mostly Cloudy
10:53 AM 72.0 °F 66.0 °F 81% 30.18 in 10.0 mi SE 13.8 mph 18.4 mph N/A   Mostly Cloudy
11:39 AM 73.4 °F 66.2 °F 78% 30.18 in 10.0 mi SSE 11.5 mph - N/A   Overcast
11:53 AM 73.0 °F 66.0 °F 79% 30.16 in 10.0 mi SE 10.4 mph - N/A   Overcast
12:22 PM 73.4 °F 64.4 °F 73% 30.16 in 10.0 mi SSE 8.1 mph 17.3 mph N/A   Mostly Cloudy
12:37 PM 73.4 °F 64.4 °F 73% 30.15 in 10.0 mi SSE 10.4 mph - N/A   Overcast
12:53 PM 73.0 °F 64.9 °F 76% 30.14 in 10.0 mi SSE 16.1 mph 21.9 mph 0.00 in Rain Light Rain
1:15 PM 69.8 °F 66.2 °F 88% 30.15 in 2.0 mi South 10.4 mph 20.7 mph 0.11 in Rain Rain
1:25 PM 69.8 °F 66.2 °F 88% 30.15 in 8.0 mi South 6.9 mph - 0.12 in Rain Light Rain
1:53 PM 69.1 °F 66.0 °F 90% 30.12 in 6.0 mi Calm Calm - 0.14 in Rain Light Rain
2:18 PM 69.8 °F 66.2 °F 88% 30.11 in 2.5 mi NNE 5.8 mph - 0.05 in Rain Rain
2:22 PM 69.8 °F 66.2 °F 88% 30.11 in 3.0 mi NE 4.6 mph - 0.05 in Rain Rain
2:33 PM 69.8 °F 66.2 °F 88% 30.11 in 1.8 mi Variable 6.9 mph - 0.14 in Rain Heavy Rain
2:37 PM 69.8 °F 66.2 °F 88% 30.14 in 1.2 mi WSW 15.0 mph 23.0 mph 0.26 in Rain , Thunderstorm Heavy Rain
2:53 PM 64.0 °F 61.0 °F 90% 30.13 in 1.2 mi West 16.1 mph 26.5 mph 0.61 in Rain Heavy Rain
2:58 PM 64.4 °F 60.8 °F 88% 30.14 in 1.5 mi West 10.4 mph 20.7 mph 0.02 in Rain Heavy Rain
3:04 PM 64.4 °F 60.8 °F 88% 30.14 in 3.0 mi West 5.8 mph 16.1 mph 0.03 in Rain Rain
3:53 PM 64.0 °F 61.0 °F 90% 30.09 in 10.0 mi East 12.7 mph - 0.05 in Rain Light Rain
4:53 PM 64.0 °F 60.1 °F 87% 30.03 in 10.0 mi SE 8.1 mph - 0.01 in   Mostly Cloudy
5:53 PM 64.0 °F 60.1 °F 87% 30.02 in 10.0 mi SE 4.6 mph - N/A   Clear
6:53 PM 63.0 °F 60.1 °F 90% 30.04 in 10.0 mi Calm Calm - N/A   Clear
7:53 PM 62.1 °F 60.1 °F 93% 30.04 in 10.0 mi SE 3.5 mph - N/A   Clear
8:53 PM 61.0 °F 59.0 °F 93% 30.07 in 10.0 mi SSE 4.6 mph - N/A   Clear
9:53 PM 63.0 °F 60.1 °F 90% 30.10 in 10.0 mi South 4.6 mph - N/A   Partly Cloudy
11:53 PM 64.0 °F 60.1 °F 87% 30.10 in 10.0 mi South 9.2 mph - N/A   Overcast